EZY1122 EGCC-LSGG

Flight info

Callsign EZY1122
Flight time N/A
Altitude 35000
Route SANBA N859 HON UL612 VEULE DCT PEKIM DCT PILUL DCT PIMUP/N0443F270 DCT PIXIS DCT PIBAT/N0416F230 DCT LUSAR
Aircraft A320/M-SDE3FGHIRWY/LB1

Departure

Time 2026-05-01 14:48
Airport Manchester Airport (EGCC)

Arrival

Time N/A
Airport Geneva International Airport (LSGG)
Time Latitude Longitude Altitude Speed Heading
2026-05-01 14:27 53.35979 -2.27519 247 ft 0 kts 96°
2026-05-01 14:37 53.35981 -2.27542 247 ft 4 kts 96°
2026-05-01 14:37 53.35983 -2.27581 247 ft 3 kts 97°
2026-05-01 14:37 53.35992 -2.27614 247 ft 4 kts 156°
2026-05-01 14:38 53.36018 -2.27622 247 ft 4 kts 182°
2026-05-01 14:38 53.36033 -2.27620 247 ft 0 kts 186°
2026-05-01 14:38 53.36010 -2.27624 247 ft 4 kts 185°
2026-05-01 14:38 53.36000 -2.27626 247 ft 0 kts 185°
2026-05-01 14:43 53.35988 -2.27628 247 ft 4 kts 185°
2026-05-01 14:43 53.35941 -2.27636 247 ft 10 kts 185°
2026-05-01 14:43 53.35857 -2.27649 247 ft 15 kts 185°
2026-05-01 14:44 53.35739 -2.27648 247 ft 19 kts 161°
2026-05-01 14:44 53.35596 -2.27489 253 ft 4 kts 141°
2026-05-01 14:44 53.35584 -2.27472 255 ft 1 kts 141°
2026-05-01 14:45 53.35570 -2.27453 256 ft 6 kts 141°
2026-05-01 14:45 53.35427 -2.27259 260 ft 24 kts 141°
2026-05-01 14:45 53.35283 -2.27202 252 ft 21 kts 187°
2026-05-01 14:46 53.35126 -2.27254 242 ft 27 kts 192°
2026-05-01 14:46 53.34963 -2.27416 239 ft 0 kts 230°
2026-05-01 14:46 53.34953 -2.27435 239 ft 5 kts 230°
2026-05-01 14:47 53.34900 -2.27542 237 ft 25 kts 230°
2026-05-01 14:47 53.34660 -2.28045 234 ft 89 kts 232°
2026-05-01 14:47 53.34147 -2.29121 214 ft 144 kts 231°
2026-05-01 14:48 53.32598 -2.32131 855 ft 184 kts 225°
2026-05-01 14:48 53.31632 -2.33572 1511 ft 188 kts 227°
2026-05-01 14:48 53.30037 -2.37554 2176 ft 228 kts 237°
2026-05-01 14:49 53.27976 -2.42046 3480 ft 252 kts 212°
2026-05-01 14:49 53.24623 -2.42765 5275 ft 255 kts 160°
2026-05-01 14:50 53.21977 -2.40526 6779 ft 257 kts 154°
2026-05-01 14:50 53.18277 -2.37245 8722 ft 262 kts 154°
2026-05-01 14:51 53.16658 -2.35821 9546 ft 264 kts 155°
2026-05-01 14:51 53.13313 -2.32893 10648 ft 289 kts 154°
2026-05-01 14:52 53.09459 -2.29539 11016 ft 333 kts 154°
2026-05-01 14:52 53.07377 -2.27728 11540 ft 341 kts 154°
2026-05-01 14:52 53.03139 -2.24024 12862 ft 350 kts 154°
2026-05-01 14:53 53.00973 -2.22131 13522 ft 354 kts 154°
2026-05-01 14:53 52.98780 -2.20222 14135 ft 358 kts 154°
2026-05-01 14:53 52.96562 -2.18301 14721 ft 361 kts 155°
2026-05-01 14:53 52.94329 -2.16368 15299 ft 364 kts 155°
2026-05-01 14:54 52.92075 -2.14419 15855 ft 367 kts 155°
2026-05-01 14:54 52.89797 -2.12454 16422 ft 370 kts 155°
2026-05-01 14:54 52.87501 -2.10474 16955 ft 374 kts 155°
2026-05-01 14:54 52.85182 -2.08473 17496 ft 377 kts 155°
2026-05-01 14:55 52.82850 -2.06462 18004 ft 380 kts 155°
2026-05-01 14:55 52.80493 -2.04434 18517 ft 383 kts 155°
2026-05-01 14:55 52.78122 -2.02399 18971 ft 386 kts 155°
2026-05-01 14:55 52.75762 -2.00377 19402 ft 388 kts 155°
2026-05-01 14:56 52.73328 -1.98295 19847 ft 390 kts 155°
2026-05-01 14:56 52.70909 -1.96229 20310 ft 392 kts 155°
2026-05-01 14:56 52.68477 -1.94152 20758 ft 394 kts 155°
2026-05-01 14:56 52.66038 -1.92068 21204 ft 397 kts 155°
2026-05-01 14:57 52.63580 -1.89971 21648 ft 399 kts 155°
2026-05-01 14:57 52.58656 -1.85790 22487 ft 403 kts 155°
2026-05-01 14:57 52.56153 -1.83672 22896 ft 406 kts 155°
2026-05-01 14:58 52.53635 -1.81538 23307 ft 408 kts 155°
2026-05-01 14:58 52.51106 -1.79396 23706 ft 410 kts 155°
2026-05-01 14:58 52.48564 -1.77243 24037 ft 412 kts 155°
2026-05-01 14:58 52.46008 -1.75081 24374 ft 414 kts 155°
2026-05-01 14:59 52.43439 -1.72909 24717 ft 416 kts 155°
2026-05-01 14:59 52.40863 -1.70735 25045 ft 418 kts 155°
2026-05-01 14:59 52.38271 -1.68554 25371 ft 419 kts 155°
2026-05-01 14:59 52.35668 -1.66374 25690 ft 421 kts 155°
2026-05-01 15:00 52.30414 -1.62032 26300 ft 425 kts 155°
2026-05-01 15:00 52.27766 -1.59870 26589 ft 426 kts 155°
2026-05-01 15:00 52.25110 -1.57703 26865 ft 428 kts 155°
2026-05-01 15:01 52.22435 -1.55518 27135 ft 430 kts 155°
2026-05-01 15:01 52.19758 -1.53325 27424 ft 432 kts 155°
2026-05-01 15:01 52.17066 -1.51123 27693 ft 434 kts 155°
2026-05-01 15:01 52.14365 -1.48921 27951 ft 435 kts 155°
2026-05-01 15:02 52.11646 -1.46712 28191 ft 437 kts 155°
2026-05-01 15:02 52.09846 -1.45249 28425 ft 437 kts 155°
2026-05-01 15:02 52.06214 -1.42302 28935 ft 435 kts 155°
2026-05-01 15:02 52.03508 -1.40107 29322 ft 435 kts 155°
2026-05-01 15:03 52.00807 -1.37919 29726 ft 433 kts 155°
2026-05-01 15:03 51.98115 -1.35739 30129 ft 432 kts 155°
2026-05-01 15:03 51.95426 -1.33563 30470 ft 431 kts 155°
2026-05-01 15:03 51.92745 -1.31400 30781 ft 430 kts 155°
2026-05-01 15:04 51.90056 -1.29239 31084 ft 430 kts 155°
2026-05-01 15:04 51.87376 -1.27087 31387 ft 430 kts 155°
2026-05-01 15:04 51.84698 -1.24939 31687 ft 429 kts 155°
2026-05-01 15:04 51.82022 -1.22796 31981 ft 429 kts 155°
2026-05-01 15:05 51.79383 -1.20681 32272 ft 429 kts 155°
2026-05-01 15:05 51.76674 -1.18512 32553 ft 429 kts 155°
2026-05-01 15:05 51.74032 -1.16399 32829 ft 429 kts 155°
2026-05-01 15:05 51.71359 -1.14260 33121 ft 429 kts 155°
2026-05-01 15:06 51.68685 -1.12126 33408 ft 429 kts 155°
2026-05-01 15:06 51.66007 -1.09996 33684 ft 429 kts 155°
2026-05-01 15:06 51.63328 -1.07869 33965 ft 429 kts 155°
2026-05-01 15:06 51.60732 -1.05501 34233 ft 430 kts 147°
2026-05-01 15:07 51.58294 -1.02713 34471 ft 430 kts 146°
2026-05-01 15:07 51.55885 -0.99947 34704 ft 430 kts 146°
2026-05-01 15:07 51.53440 -0.97157 34902 ft 431 kts 146°
2026-05-01 15:07 51.50988 -0.94371 35075 ft 431 kts 146°
2026-05-01 15:08 51.48540 -0.91590 35151 ft 432 kts 146°
2026-05-01 15:08 51.43394 -0.86664 35160 ft 430 kts 159°
2026-05-01 15:09 51.37840 -0.83121 35162 ft 430 kts 159°
2026-05-01 15:09 51.32315 -0.79590 35166 ft 430 kts 159°
2026-05-01 15:10 51.26748 -0.76032 35175 ft 431 kts 159°
2026-05-01 15:10 51.18389 -0.70717 35170 ft 431 kts 159°
2026-05-01 15:11 51.10025 -0.65428 35182 ft 431 kts 159°
2026-05-01 15:12 51.04850 -0.61832 35180 ft 432 kts 151°
2026-05-01 15:12 50.97445 -0.54002 35188 ft 432 kts 147°
2026-05-01 15:14 50.84943 -0.40720 35186 ft 433 kts 147°
2026-05-01 15:14 50.77425 -0.32776 35185 ft 433 kts 147°
2026-05-01 15:15 50.67382 -0.22211 35199 ft 434 kts 148°
2026-05-01 15:16 50.57356 -0.11699 35214 ft 435 kts 147°
2026-05-01 15:18 50.44710 0.01448 35209 ft 435 kts 147°
2026-05-01 15:19 50.34642 0.11875 35237 ft 432 kts 147°
2026-05-01 15:19 50.27108 0.19632 35229 ft 432 kts 147°
2026-05-01 15:20 50.19605 0.27310 35225 ft 431 kts 147°
2026-05-01 15:21 50.14597 0.32475 35214 ft 432 kts 147°
2026-05-01 15:21 50.09572 0.37643 35212 ft 433 kts 147°
2026-05-01 15:22 50.02009 0.45385 35205 ft 434 kts 147°
2026-05-01 15:22 49.96963 0.50526 35235 ft 433 kts 147°
2026-05-01 15:23 49.91931 0.55648 35238 ft 432 kts 147°
2026-05-01 15:23 49.86904 0.60747 35221 ft 431 kts 147°
2026-05-01 15:24 49.82356 0.66815 35219 ft 432 kts 138°
2026-05-01 15:24 49.77980 0.73200 35212 ft 432 kts 138°
2026-05-01 15:25 49.73623 0.79534 35217 ft 433 kts 138°
2026-05-01 15:25 49.69222 0.85897 35204 ft 433 kts 138°
2026-05-01 15:26 49.64805 0.92256 35199 ft 434 kts 138°
2026-05-01 15:26 49.60404 0.98594 35216 ft 432 kts 138°
2026-05-01 15:27 49.56018 1.04920 35216 ft 431 kts 138°
2026-05-01 15:28 49.49417 1.14352 35185 ft 432 kts 138°
2026-05-01 15:28 49.45004 1.20646 35179 ft 433 kts 138°
2026-05-01 15:29 49.38361 1.30103 35171 ft 435 kts 139°
2026-05-01 15:30 49.30230 1.41625 35216 ft 433 kts 139°
2026-05-01 15:31 49.16210 1.61357 35203 ft 433 kts 139°
2026-05-01 15:32 49.08071 1.72756 35201 ft 434 kts 139°
2026-05-01 15:34 48.94671 1.91371 35189 ft 434 kts 139°